| time (UTC) | temp F | wind direction | speed MPH | gust MPH | rain 1hr in | rain 24hr in | rain mn in | humidity % | barometer mb |
| 20260906190032 | 68 | 330 | 7.0 | 13.0 | 0.00 | 0.00 | 0.00 | 54 | 1019.4 |
| 20260906184528 | 68 | 37 | 4.0 | 9.0 | 0.00 | 0.00 | 0.00 | 44 | 1019.6 |
| 20260906183026 | 69 | 28 | 4.0 | 9.0 | 0.00 | 0.00 | 0.00 | 49 | 1019.4 |
| 20260906181538 | 68 | 5 | 5.0 | 12.0 | 0.00 | 0.00 | 0.00 | 48 | 1019.6 |
| 20260906180021 | 69 | 59 | 3.0 | 12.0 | 0.00 | 0.00 | 0.00 | 56 | 1019.7 |
| 20260906174510 | 68 | 13 | 4.0 | 13.0 | 0.00 | 0.00 | 0.00 | 56 | 1019.7 |
| 20260906173007 | 69 | 339 | 4.0 | 13.0 | 0.00 | 0.00 | 0.00 | 52 | 1019.6 |
| 20260906171610 | 68 | 25 | 6.0 | 11.0 | 0.00 | 0.00 | 0.00 | 51 | 1019.7 |
| 20260906170107 | 68 | 346 | 6.0 | 12.0 | 0.00 | 0.00 | 0.00 | 53 | 1019.7 |
| 20260906164551 | 69 | 24 | 8.0 | 13.0 | 0.00 | 0.00 | 0.00 | 54 | 1019.6 |
| 20260906163047 | 68 | 80 | 9.0 | 15.0 | 0.00 | 0.00 | 0.00 | 52 | 1019.5 |
| 20260906161542 | 68 | 36 | 5.0 | 13.0 | 0.00 | 0.00 | 0.00 | 45 | 1019.6 |
| 20260906160038 | 69 | 40 | 7.0 | 13.0 | 0.00 | 0.00 | 0.00 | 37 | 1019.6 |
| 20260906154541 | 68 | 17 | 6.0 | 13.0 | 0.00 | 0.00 | 0.00 | 30 | 1019.6 |
| 20260906153033 | 68 | 47 | 6.0 | 12.0 | 0.00 | 0.00 | 0.00 | 29 | 1019.6 |
| 20260906151525 | 68 | 59 | 3.0 | 10.0 | 0.00 | 0.00 | 0.00 | 23 | 1019.5 |
| 20260906150022 | 67 | 45 | 4.0 | 10.0 | 0.00 | 0.00 | 0.00 | 3 | 1019.6 |
| 20260906144515 | 67 | 88 | 5.0 | 9.0 | 0.00 | 0.00 | 0.00 | 8 | 1019.6 |
| 20260906143014 | 67 | 63 | 5.0 | 11.0 | 0.00 | 0.00 | 0.00 | 100 | 1019.6 |
| 20260906141506 | 66 | 82 | 6.0 | 11.0 | 0.00 | 0.00 | 0.00 | 100 | 1019.5 |
| 20260906140002 | 65 | 84 | 5.0 | 12.0 | 0.00 | 0.00 | 0.00 | 100 | 1019.4 |
| 20260906134558 | 65 | 82 | 5.0 | 12.0 | 0.00 | 0.00 | 0.00 | 100 | 1019.1 |
| 20260906133105 | 65 | 76 | 8.0 | 14.0 | 0.00 | 0.00 | 0.00 | 100 | 1019.3 |
| 20260906131548 | 64 | 84 | 10.0 | 13.0 | 0.00 | 0.00 | 0.00 | 100 | 1019.1 |
| 20260906130051 | 64 | 79 | 6.0 | 14.0 | 0.00 | 0.00 | 0.00 | 100 | 1019.1 |
| 20260906124543 | 63 | 78 | 5.0 | 11.0 | 0.00 | 0.00 | 0.00 | 100 | 1019.0 |
| 20260906123039 | 63 | 71 | 5.0 | 9.0 | 0.00 | 0.00 | 0.00 | 100 | 1018.9 |
| 20260906121531 | 62 | 54 | 2.0 | 5.0 | 0.00 | 0.00 | 0.00 | 100 | 1018.8 |
| 20260906120026 | 62 | 57 | 2.0 | 6.0 | 0.00 | 0.00 | 0.00 | 100 | 1018.6 |
| 20260906114540 | 62 | 22 | 0.0 | 3.0 | 0.00 | 0.00 | 0.00 | 100 | 1018.6 |
| 20260906113018 | 61 | 355 | 0.0 | 2.0 | 0.00 | 0.00 | 0.00 | 100 | 1018.3 |
| 20260906111513 | 61 | 355 | 0.0 | 2.0 | 0.00 | 0.00 | 0.00 | 100 | 1018.2 |
| 20260906110011 | 61 | 335 | 0.0 | 3.0 | 0.00 | 0.00 | 0.00 | 100 | 1018.1 |
| 20260906104504 | 61 | 9 | 0.0 | 2.0 | 0.00 | 0.00 | 0.00 | 100 | 1017.9 |
| 20260906103101 | 60 | 306 | 0.0 | 3.0 | 0.00 | 0.00 | 0.00 | 100 | 1017.9 |
| 20260906101557 | 60 | 312 | 1.0 | 3.0 | 0.00 | 0.00 | 0.00 | 100 | 1017.6 |
| 20260906100052 | 59 | 263 | 0.0 | 2.0 | 0.00 | 0.00 | 0.00 | 100 | 1017.4 |
| 20260906094601 | 58 | 255 | 0.0 | 0.0 | 0.00 | 0.00 | 0.00 | 100 | 1017.3 |
| 20260906093105 | 59 | 255 | 0.0 | 2.0 | 0.00 | 0.00 | 0.00 | 100 | 1017.2 |
| 20260906091540 | 60 | 255 | 0.0 | 2.0 | 0.00 | 0.00 | 0.00 | 100 | 1017.0 |
| 20260906090034 | 60 | 277 | 1.0 | 3.0 | 0.00 | 0.00 | 0.00 | 100 | 1016.7 |
| 20260906084530 | 60 | 175 | 0.0 | 1.0 | 0.00 | 0.00 | 0.00 | 100 | 1016.5 |
| 20260906083041 | 58 | 195 | 0.0 | 0.0 | 0.00 | 0.00 | 0.00 | 100 | 1016.4 |
| 20260906081521 | 60 | 195 | 0.0 | 0.0 | 0.00 | 0.00 | 0.00 | 100 | 1016.4 |
| 20260906080017 | 60 | 195 | 0.0 | 0.0 | 0.00 | 0.00 | 0.00 | 100 | 1016.4 |
| 20260906074516 | 61 | 195 | 0.0 | 0.0 | 0.00 | 0.00 | 0.00 | 100 | 1016.3 |
| 20260906073015 | 61 | 195 | 0.0 | 0.0 | 0.00 | 0.00 | 0.00 | 100 | 1016.3 |
| 20260906071504 | 62 | 195 | 0.0 | 2.0 | 0.00 | 0.00 | 0.00 | 100 | 1016.2 |
| 20260906070059 | 62 | 195 | 0.0 | 1.0 | 0.00 | 0.00 | 0.00 | 100 | 1016.3 |
| 20260906064555 | 62 | 195 | 0.0 | 1.0 | 0.00 | 0.00 | 0.00 | 100 | 1016.4 |
| 20260906063052 | 62 | 195 | 0.0 | 1.0 | 0.00 | 0.00 | 0.00 | 100 | 1016.4 |
| 20260906061547 | 62 | 103 | 0.0 | 1.0 | 0.00 | 0.00 | 0.00 | 100 | 1016.5 |
| 20260906060042 | 62 | 103 | 0.0 | 0.0 | 0.00 | 0.00 | 0.00 | 100 | 1016.4 |
| 20260906054541 | 62 | 5 | 0.0 | 1.0 | 0.00 | 0.00 | 0.00 | 100 | 1016.4 |
| 20260906053036 | 61 | 5 | 0.0 | 1.0 | 0.00 | 0.00 | 0.00 | 100 | 1016.6 |
| 20260906051532 | 61 | 5 | 0.0 | 0.0 | 0.00 | 0.00 | 0.00 | 100 | 1016.7 |
| 20260906050025 | 62 | 5 | 0.0 | 1.0 | 0.00 | 0.00 | 0.00 | 100 | 1016.5 |
| 20260906044520 | 62 | 5 | 0.0 | 1.0 | 0.00 | 0.00 | 0.00 | 100 | 1016.4 |
| 20260906043017 | 63 | 5 | 0.0 | 1.0 | 0.00 | 0.00 | 0.00 | 100 | 1016.5 |
| 20260906041511 | 63 | 5 | 0.0 | 0.0 | 0.00 | 0.00 | 0.00 | 100 | 1016.4 |
| 20260906040015 | 63 | 5 | 0.0 | 0.0 | 0.00 | 0.00 | 0.00 | 100 | 1016.5 |
| 20260906034502 | 63 | 5 | 0.0 | 1.0 | 0.00 | 0.00 | 0.00 | 100 | 1016.3 |
| 20260906033058 | 63 | 5 | 0.0 | 0.0 | 0.00 | 0.00 | 0.00 | 100 | 1016.2 |
| 20260906031553 | 63 | 5 | 0.0 | 0.0 | 0.00 | 0.00 | 0.00 | 100 | 1016.2 |
| 20260906030050 | 63 | 5 | 0.0 | 1.0 | 0.00 | 0.00 | 0.00 | 100 | 1016.2 |
| 20260906024550 | 64 | 360 | 0.0 | 1.0 | 0.00 | 0.00 | 0.00 | 100 | 1016.1 |
| 20260906023041 | 64 | 5 | 0.0 | 1.0 | 0.00 | 0.00 | 0.00 | 100 | 1016.0 |
| 20260906021536 | 64 | 5 | 0.0 | 1.0 | 0.00 | 0.00 | 0.00 | 100 | 1016.0 |
| 20260906020032 | 64 | 5 | 0.0 | 2.0 | 0.00 | 0.00 | 0.00 | 100 | 1015.9 |
| 20260906014539 | 64 | 5 | 0.0 | 1.0 | 0.00 | 0.00 | 0.00 | 100 | 1015.8 |
| 20260906013037 | 64 | 5 | 0.0 | 0.0 | 0.00 | 0.00 | 0.00 | 100 | 1015.7 |
| 20260906011518 | 65 | 9 | 0.0 | 0.0 | 0.00 | 0.00 | 0.00 | 100 | 1015.6 |
| 20260906010014 | 65 | 9 | 0.0 | 0.0 | 0.00 | 0.00 | 0.00 | 100 | 1015.6 |
| 20260906004509 | 65 | 9 | 0.0 | 1.0 | 0.00 | 0.00 | 0.00 | 100 | 1015.6 |
| 20260906003005 | 66 | 5 | 0.0 | 1.0 | 0.00 | 0.00 | 0.00 | 100 | 1015.4 |
| 20260906001501 | 66 | 5 | 0.0 | 2.0 | 0.00 | 0.00 | 0.00 | 100 | 1015.5 |
| 20260906000057 | 66 | 346 | 0.0 | 3.0 | 0.00 | 0.00 | 0.00 | 100 | 1015.4 |
| 20260905234558 | 66 | 322 | 0.0 | 4.0 | 0.00 | 0.00 | 0.00 | 1 | 1015.3 |
| 20260905233049 | 67 | 5 | 2.0 | 4.0 | 0.00 | 0.00 | 0.00 | 9 | 1015.4 |
| 20260905231544 | 68 | 360 | 3.0 | 5.0 | 0.00 | 0.00 | 0.00 | 22 | 1015.4 |
| 20260905230039 | 69 | 42 | 2.0 | 4.0 | 0.00 | 0.00 | 0.00 | 27 | 1015.4 |
| 20260905224535 | 69 | 5 | 2.0 | 4.0 | 0.00 | 0.00 | 0.00 | 30 | 1015.3 |
| 20260905223030 | 70 | 327 | 2.0 | 6.0 | 0.00 | 0.00 | 0.00 | 31 | 1015.3 |
| 20260905221525 | 70 | 9 | 3.0 | 7.0 | 0.00 | 0.00 | 0.00 | 31 | 1015.2 |
| 20260905220021 | 71 | 41 | 5.0 | 10.0 | 0.00 | 0.00 | 0.00 | 35 | 1015.0 |
| 20260905214516 | 71 | 42 | 7.0 | 11.0 | 0.00 | 0.00 | 0.00 | 44 | 1014.9 |
| 20260905213012 | 71 | 14 | 5.0 | 12.0 | 0.00 | 0.00 | 0.00 | 49 | 1014.7 |
| 20260905211507 | 71 | 77 | 6.0 | 10.0 | 0.00 | 0.00 | 0.00 | 45 | 1014.5 |
| 20260905210005 | 72 | 34 | 6.0 | 13.0 | 0.00 | 0.00 | 0.00 | 51 | 1014.5 |
| 20260905204504 | 73 | 329 | 4.0 | 10.0 | 0.00 | 0.00 | 0.00 | 50 | 1014.4 |
| 20260905203004 | 73 | 45 | 5.0 | 11.0 | 0.00 | 0.00 | 0.00 | 48 | 1014.5 |
| 20260905201503 | 73 | 5 | 8.0 | 13.0 | 0.00 | 0.00 | 0.00 | 55 | 1014.5 |
| 20260905194556 | 73 | 5 | 7.0 | 12.0 | 0.00 | 0.00 | 0.00 | 56 | 1014.5 |
| 20260905193104 | 72 | 46 | 6.0 | 11.0 | 0.00 | 0.00 | 0.00 | 51 | 1014.5 |
| 20260905191547 | 72 | 336 | 3.0 | 10.0 | 0.00 | 0.00 | 0.00 | 57 | 1014.6 |